This demonstration page uses our WeatherBlox Daily Observations layout. Learn more.

Left ArrowRight Arrow

44.8408, -93.29828

Hourly Observations for March 31, 2015

Temp ( °F °C ) Dew Point ( °F °C ) Humidity (%) Winds ( mph kmh ) Pressure ( in mb ) Visibility ( mi km ) Precip ( " mm )
12:53 am 00:53 Clear 39 3.9 36 2.2 89 89 Calm 29.90 1012 10 16 0.00 0.00
1:53 am 01:53 Clear 39 3.9 36 2.2 89 89 Calm 29.89 1012 10 16 0.00 0.00
2:53 am 02:53 Mostly Clear 37 2.8 34 1.1 89 89 WSW 5 7 29.88 1012 8 13 0.00 0.00
3:53 am 03:53 Mostly Clear 37 2.8 34 1.1 89 89 WSW 3 6 29.88 1012 8 13 0.00 0.00
4:53 am 04:53 Clear 34 1.1 32 0 92 92 Calm 29.89 1012 8 13 0.00 0.00
5:53 am 05:53 Clear 35 1.7 33 0.6 93 93 Calm 29.90 1013 8 13 0.00 0.00
6:53 am 06:53 Clear with Patchy Fog 35 1.7 33 0.6 93 93 Calm 29.91 1013 6 10 0.00 0.00
7:53 am 07:53 Sunny with Patchy Fog 36 2.2 35 1.7 97 97 Calm 29.93 1013 7 11 0.00 0.00
8:53 am 08:53 Sunny 41 5 37 2.8 86 86 W 3 6 29.94 1014 10 16 0.00 0.00
9:53 am 09:53 Mostly Sunny 50 10 36 2.2 59 59 NW 9 15 29.95 1014 10 16 0.00 0.00
10:53 am 10:53 Mostly Sunny 55 12.8 36 2.2 49 49 NW 9 15 29.95 1014 10 16 0.00 0.00
11:53 am 11:53 Mostly Sunny 59 15 35 1.7 41 41 WNW 7 11 29.95 1014 10 16 0.00 0.00
12:53 pm 12:53 Mostly Sunny 60 15.6 33 0.6 36 36 W 13 20 29.93 1014 10 16 0.00 0.00
1:53 pm 13:53 Mostly Sunny 62 16.7 30 -1.1 30 30 VRB 7 11 29.93 1013 10 16 0.00 0.00
2:53 pm 14:53 Mostly Sunny 63 17.2 29 -1.7 28 28 W 10 17 29.91 1013 10 16 0.00 0.00
3:53 pm 15:53 Mostly Sunny 64 17.8 28 -2.2 26 26 WNW 13 20 29.89 1012 10 16 0.00 0.00
4:53 pm 16:53 Mostly Sunny 65 18.3 26 -3.3 23 23 WNW 10 17 29.88 1012 10 16 0.00 0.00
5:53 pm 17:53 Mostly Sunny 64 17.8 26 -3.3 24 24 NW 7 11 29.88 1012 10 16 0.00 0.00
6:53 pm 18:53 Mostly Sunny 62 16.7 27 -2.8 26 26 W 5 7 29.89 1012 10 16 0.00 0.00
7:53 pm 19:53 Mostly Clear 61 16.1 26 -3.3 26 26 VRB 3 6 29.89 1012 10 16 0.00 0.00
8:53 pm 20:53 Mostly Clear 57 13.9 27 -2.8 32 32 Calm 29.90 1012 10 16 0.00 0.00
9:53 pm 21:53 Mostly Cloudy 55 12.8 28 -2.2 35 35 ESE 7 11 29.89 1012 10 16 0.00 0.00
10:53 pm 22:53 Mostly Cloudy 54 12.2 28 -2.2 37 37 ESE 3 6 29.88 1012 10 16 0.00 0.00
11:53 pm 23:53 Mostly Clear 50 10 29 -1.7 44 44 ESE 8 13 29.87 1011 10 16 0.00 0.00

Powered by AerisWeather